This is the latest recevied weather packets stored in our database for station/object OK1FET-5. If no packets are shown the sender has not sent any weather packets the latest 1 day(s).
| Time | Temp. | Humidity | Pressure | Rain* | Wind** | Luminosity | Snow |
|---|---|---|---|---|---|---|---|
| 1778008753 | 16.67° C | 61% | 1004.8 hPa | - | 0.45 m/s, 330° | - | - |
| 1778008164 | 16.11° C | 61% | 1004.9 hPa | - | 0.89 m/s, 9° | - | - |
| 1778007869 | 16.11° C | 60% | 1005 hPa | - | 0.89 m/s, 330° | - | - |
| 1778007574 | 16.11° C | 59% | 1005.1 hPa | - | 0.89 m/s, 342° | - | - |
| 1778007281 | 16.67° C | 58% | 1005.3 hPa | - | 0.89 m/s, 333° | - | - |
| 1778006986 | 16.67° C | 56% | 1005.4 hPa | - | 0.45 m/s, 5° | - | - |
| 1778006691 | 16.67° C | 55% | 1005.4 hPa | - | 0.45 m/s, 322° | - | - |
| 1778006396 | 17.22° C | 55% | 1005.3 hPa | - | 1.34 m/s, 20° | - | - |
| 1778006102 | 17.22° C | 54% | 1005.3 hPa | - | 2.24 m/s, 60° | - | - |
| 1778005807 | 17.22° C | 56% | 1005.2 hPa | - | 2.24 m/s, 54° | - | - |
| 1778005218 | 16.67° C | 59% | 1005.2 hPa | - | 2.68 m/s, 75° | - | - |
| 1778004923 | 17.22° C | 62% | 1005.3 hPa | - | 2.68 m/s, 87° | - | - |
| 1778004628 | 17.22° C | 70% | 1005.3 hPa | - | 3.58 m/s, 91° | - | - |
| 1778004334 | 17.78° C | 73% | 1005.4 hPa | - | 4.02 m/s, 100° | - | - |
| 1778004039 | 18.33° C | 65% | 1005.4 hPa | - | 4.47 m/s, 137° | - | - |
| 1778003744 | 20° C | 53% | 1005.4 hPa | - | 4.47 m/s, 118° | - | - |
| 1778003449 | 20.56° C | 55% | 1005.2 hPa | - | 2.68 m/s, 111° | - | - |
| 1778003154 | 20.56° C | 49% | 1005.1 hPa | - | 1.79 m/s, 140° | - | - |
| 1778002859 | 20.56° C | 42% | 1005 hPa | - | 0.45 m/s, 278° | - | - |
| 1778002564 | 21.11° C | 42% | 1005 hPa | - | 0.89 m/s, 2° | - | - |
| 1778002269 | 21.11° C | 41% | 1004.9 hPa | - | 0.89 m/s, 221° | - | - |
| 1778001974 | 21.11° C | 41% | 1004.9 hPa | - | 0.89 m/s, 316° | - | - |
| 1778001679 | 21.67° C | 41% | 1004.9 hPa | - | 1.34 m/s, 130° | - | - |
| 1778001088 | 22.22° C | 40% | 1005 hPa | - | 1.34 m/s, 58° | - | - |
| 1778000793 | 22.22° C | 40% | 1005.1 hPa | - | 1.34 m/s, 23° | - | - |
* Rain since midnight (hover to see other rain measurements)
** Current wind speed in m/s (hover to see current wind gust speed)